Home > Weather > Gothenburg > Past weeks

Flag for Sweden Past Weather in Gothenburg, Sweden — Yesterday and Last 2 Weeks

Now
61 °F

Overcast.


Feels Like: 61 °F
Forecast: 57 / 67 °F
Wind: 8 mph from West

Location: Gothenburg / Save

Current Time: Jul 28, 2016 at 6:53:12 AM

Latest Report: Jul 28, 2016 at 6:20 AM


Visibility: N/A

Pressure: 29.83 "Hg

Humidity: 88%

Dew Point: 57 °F

Location of GothenburgLocation

Past Weather in Gothenburg — Graph

°F

Gothenburg Temperature Yesterday

Maximum temperature yesterday: 70 °F (at 2:50 PM)
Minimum temperature yesterday: 52 °F (at 5:20 AM)
Average temperature yesterday: 63 °F

High & Low Weather Summary for the Past Weeks

 TemperatureHumidityPressure
High77 °F (Jul 21, 11:20 AM)100% (Jul 15, 4:20 AM)30.12 "Hg (Jul 15, 4:20 AM)
Low48 °F (Jul 19, 2:50 AM)36% (Jul 22, 4:50 PM)29.71 "Hg (Jul 13, 5:20 AM)
Average64 °F77%29.99 "Hg
* Reported Jul 13 5:20 AM — Jul 28 5:20 AM, Gothenburg, Weather by CustomWeather, © 2016

Note: Actual official high and low records may vary slightly from our data, if they occured in-between our weather recording intervals... More about our weather records

Advertising

Gothenburg Weather History for the Previous 24 Hours

Scroll right to see more
 ConditionsComfort  
Time TempWeatherWind HumidityBarometerVisibility
5:20 AM
Thu, Jul 28
63 °FDrizzle. Overcast.10 mph88%29.83 "HgN/A
4:50 AM63 °FPartly cloudy.10 mph88%29.83 "Hg4 mi
4:20 AM64 °FPartly cloudy.8 mph83%29.80 "HgN/A
3:50 AM64 °FOvercast.8 mph88%29.80 "HgN/A
3:20 AM63 °FOvercast.6 mph88%29.83 "HgN/A
2:50 AM63 °FPartly cloudy.8 mph94%29.83 "HgN/A
2:20 AM63 °FPartly cloudy.6 mph94%29.83 "HgN/A
1:50 AM63 °FOvercast.6 mph88%29.83 "HgN/A
1:20 AM63 °FPassing clouds.5 mph88%29.83 "HgN/A
12:50 AM63 °FLight rain. Partly cloudy.6 mph94%29.86 "HgN/A
12:20 AM63 °FPassing clouds.5 mph94%29.86 "HgN/A
11:50 PM
Wed, Jul 27
63 °FPassing clouds.6 mph88%29.86 "HgN/A
11:20 PM63 °FPartly cloudy.6 mph88%29.86 "HgN/A
10:50 PM63 °FLight rain. Overcast.13 mph83%29.86 "HgN/A
10:20 PM64 °FBroken clouds.8 mph78%29.89 "HgN/A
9:50 PM64 °FRain showers. Scattered clouds.15 mph78%29.89 "HgN/A
9:20 PM66 °FScattered clouds.15 mph73%29.89 "HgN/A
8:50 PM68 °FScattered showers. Scattered clouds.14 mph69%29.89 "HgN/A
8:20 PM68 °FSprinkles. Broken clouds.15 mph73%29.89 "HgN/A
7:50 PM68 °FBroken clouds.13 mph73%29.89 "HgN/A
7:20 PM68 °FScattered clouds.13 mph69%29.89 "HgN/A
6:50 PM68 °FSunny.12 mph69%29.92 "Hg10 mi
6:20 PM68 °FPassing clouds.12 mph69%29.92 "HgN/A
5:50 PM68 °FPassing clouds.13 mph69%29.92 "HgN/A
5:20 PM68 °FPassing clouds.16 mph69%29.92 "HgN/A
4:50 PM68 °FPassing clouds.14 mph69%29.95 "HgN/A
4:20 PM68 °FPassing clouds.13 mph73%29.95 "HgN/A
3:50 PM68 °FPassing clouds.12 mph69%29.95 "HgN/A
3:20 PM70 °FPassing clouds.15 mph60%29.95 "HgN/A
2:50 PM70 °FPartly sunny.15 mph57%29.98 "HgN/A
2:20 PM68 °FPartly sunny.13 mph64%29.98 "HgN/A
1:50 PM68 °FScattered clouds.14 mph64%29.98 "HgN/A
1:20 PM68 °FScattered clouds.13 mph64%30.01 "HgN/A
12:50 PM66 °FBroken clouds.13 mph68%30.01 "HgN/A
12:20 PM66 °FBroken clouds.12 mph68%30.01 "HgN/A
11:50 AM66 °FBroken clouds.9 mph68%30.01 "HgN/A
11:20 AM66 °FScattered clouds.13 mph64%30.01 "HgN/A
10:50 AM66 °FBroken clouds.10 mph64%30.01 "HgN/A
10:20 AM64 °FScattered clouds.12 mph68%30.01 "HgN/A
9:50 AM64 °FScattered clouds.9 mph68%30.01 "HgN/A
9:20 AM63 °FScattered clouds.8 mph73%30.04 "HgN/A
8:50 AM63 °FScattered clouds.7 mph73%30.04 "HgN/A
8:20 AM63 °FScattered clouds.8 mph73%30.04 "HgN/A
7:50 AM61 °FScattered clouds.5 mph83%30.04 "HgN/A
7:20 AM61 °FBroken clouds.3 mph83%30.04 "HgN/A
6:50 AM59 °FPassing clouds.3 mph88%30.04 "HgN/A
6:20 AM57 °FCool.3 mph88%30.04 "HgN/A
Weather by CustomWeather, © 2016

See weather overviewHow to use our weather pages